sat.trackr.live / text

‹ back to catalog

STARLINK-34027

NORAD 63936 · 2025-098L

PAYLOAD ACTIVE UNKNOWN

§ Identity

Operator
Country
US
Launch date
2025-05-13
Launch site
AFWTR
Launch vehicle
Mass (kg)
RCS (m²)

Purposes: comms

External: N2YO · Heavens-Above · Gunter

§ Orbital elements

Epoch: 2026-05-25T02:35:44.058048Z

Period
96.11 min
Inclination
70.0007°
Eccentricity
0.0003148
Mean motion
14.98329331 rev/d
Perigee alt
569.9 km
Apogee alt
574.2 km
Semi-major
6,950.2 km
B*
3.9367e-4
RAAN
81.5969°
Arg perigee
269.2625°
Mean anomaly
90.8173°
Rev number
5,800

§ Raw data

STARLINK-340271 63936U 25098L   26145.10814882  .00004607  00000+0  39367-3 0  99982 63936  70.0007  81.5969 0003148 269.2625  90.8173 14.98329331 58003

JSON: /api/v1/satellites/63936 · /tle

For live sub-satellite position, see the globe view (requires WebGL).

§ Visibility from observer

Set your observer location to see the next 7 days of passes ≥ 10°. The values pass through the URL so the page stays shareable.

No JS? Fill the form by hand. The geolocation button needs JavaScript.